DW8534 Weather Reports


Display with metric or nautical units.
time (UTC)temp
F
wind
direction
speed
MPH
gust
MPH
rain 1hr
in
rain 24hr
in
rain mn
in
humidity
%
barometer
mb
20260509150004 75 247 1.0 0.0 0.00 0.00 0.00 82 1006.0
20260509144600 73 295 1.0 0.0 0.00 0.00 0.00 83 1005.8
20260509143059 73 242 0.0 0.0 0.00 0.00 0.00 85 1005.9
20260509141554 72 256 0.0 0.0 0.00 0.00 0.00 88 1006.1
20260509140051 71 246 1.0 0.0 0.00 0.00 0.00 89 1006.1
20260509134549 70 248 0.0 0.0 0.00 0.00 0.00 91 1005.8
20260509133048 70 248 1.0 0.0 0.00 0.00 0.00 92 1005.7
20260509131547 70 256 2.0 0.0 0.00 0.00 0.00 93 1005.6
20260509130056 69 182 0.0 0.0 0.00 0.00 0.00 94 1005.2
20260509124552 68 182 0.0 0.0 0.00 0.00 0.00 93 1005.2
20260509123046 68 182 0.0 0.0 0.00 0.00 0.00 93 1005.2
20260509121546 68 182 0.0 0.0 0.00 0.00 0.00 93 1005.3
20260509120045 68 182 1.0 0.0 0.00 0.00 0.00 93 1005.5
20260509114553 69 265 0.0 0.0 0.00 0.00 0.00 93 1005.6
20260509113053 69 265 0.0 0.0 0.00 0.00 0.00 93 1005.5
20260509111543 69 267 0.0 0.0 0.00 0.00 0.00 93 1005.3
20260509110042 70 267 1.0 0.0 0.00 0.00 0.00 93 1005.2
20260509104543 69 276 1.0 0.0 0.00 0.00 0.00 93 1005.1
20260509103052 69 271 2.0 0.0 0.00 0.00 0.00 93 1004.8
20260509101557 69 194 4.0 0.0 0.00 0.00 0.00 93 1003.2
20260509100041 69 184 4.0 0.0 0.00 0.00 0.00 93 1002.7
20260509094545 69 160 6.0 0.0 0.00 0.00 0.00 93 1002.7
20260509093040 69 146 6.0 0.0 0.00 0.00 0.00 93 1003.0
20260509091540 68 170 5.0 0.0 0.00 0.00 0.00 93 1002.9
20260509090047 68 165 4.0 0.0 0.00 0.00 0.00 93 1003.4
20260509084542 68 146 2.0 0.0 0.00 0.00 0.00 93 1003.8
20260509083050 68 175 1.0 0.0 0.00 0.00 0.00 93 1004.5
20260509081535 68 188 2.0 0.0 0.00 0.00 0.00 93 1005.4
20260509080036 69 191 4.0 0.0 0.00 0.00 0.00 93 1005.9
20260509074534 69 238 4.0 0.0 0.00 0.00 0.00 93 1006.9
20260509073037 69 233 2.0 0.0 0.00 0.00 0.00 93 1006.9
20260509071541 69 170 1.0 0.0 0.00 0.00 0.00 93 1006.8
20260509070032 69 149 0.0 0.0 0.00 0.00 0.00 93 1006.8
20260509064531 69 126 0.0 0.0 0.00 0.00 0.00 93 1006.9
20260509063033 69 123 0.0 0.0 0.00 0.00 0.00 93 1006.7
20260509061529 68 123 0.0 0.0 0.00 0.00 0.00 92 1006.8
20260509060027 69 123 0.0 0.0 0.00 0.00 0.00 92 1006.4
20260509054530 69 123 0.0 0.0 0.00 0.00 0.00 92 1005.9
20260509053033 69 123 1.0 0.0 0.00 0.00 0.00 91 1006.2
20260509051522 69 123 2.0 0.0 0.00 0.00 0.00 91 1005.9
20260509050022 70 123 2.0 0.0 0.00 0.00 0.02 90 1005.9
20260509044520 70 122 0.0 0.0 0.00 0.00 0.02 90 1006.4
20260509043020 70 122 1.0 0.0 0.00 0.00 0.02 90 1006.4
20260509041519 71 125 2.0 0.0 0.00 0.00 0.02 89 1006.0
20260509040027 71 126 2.0 0.0 0.00 0.00 0.02 88 1005.9
20260509034518 71 127 2.0 0.0 0.00 0.00 0.02 88 1005.9
20260509033018 71 127 1.0 0.0 0.00 0.00 0.02 88 1005.9
20260509031517 71 128 2.0 0.0 0.00 0.00 0.02 88 1005.6
20260509030031 71 146 3.0 0.0 0.00 0.00 0.02 88 1005.2
20260509024516 72 167 1.0 0.0 0.00 0.00 0.02 87 1005.3
20260509023016 72 167 1.0 0.0 0.00 0.00 0.02 87 1005.3
20260509021515 72 167 1.0 0.0 0.00 0.00 0.02 86 1005.0
20260509020014 72 168 1.0 0.0 0.00 0.00 0.02 86 1004.9
20260509014515 72 168 1.0 0.0 0.00 0.00 0.02 86 1004.9
20260509013014 72 168 1.0 0.0 0.00 0.00 0.02 86 1004.8
20260509011514 72 169 2.0 0.0 0.00 0.00 0.02 86 1004.8
20260509010013 72 169 1.0 0.0 0.00 0.00 0.02 85 1004.5
20260509004517 72 171 3.0 0.0 0.00 0.00 0.02 85 1004.3
20260509003013 73 105 2.0 0.0 0.00 0.00 0.02 84 1004.3
20260509001513 73 110 3.0 0.0 0.00 0.00 0.02 84 1004.3
20260509000010 73 121 2.0 0.0 0.00 0.00 0.02 83 1004.3
20260508234513 73 112 2.0 0.0 0.00 0.00 0.02 83 1004.4
20260508233009 73 115 2.0 0.0 0.00 0.00 0.02 83 1004.4
20260508231508 73 115 4.0 0.0 0.00 0.00 0.02 82 1004.4
20260508230007 73 150 5.0 0.0 0.00 0.00 0.02 81 1004.4
20260508224506 73 130 5.0 0.0 0.00 0.00 0.02 81 1004.4
20260508223005 73 131 5.0 0.0 0.00 0.00 0.02 82 1004.5
20260508221503 73 178 4.0 0.0 0.00 0.00 0.02 81 1004.9
20260508220001 72 134 3.0 0.0 0.00 0.00 0.02 84 1005.0
20260508214601 72 98 1.0 0.0 0.00 0.00 0.02 84 1005.4
20260508213058 71 92 4.0 0.0 0.00 0.00 0.02 86 1005.2
20260508211557 69 123 7.0 0.0 0.00 0.00 0.02 86 1004.9
20260508210059 68 117 7.0 0.0 0.00 0.00 0.02 88 1005.0
20260508204556 68 110 4.0 0.0 0.00 0.00 0.02 85 1005.8
20260508203107 69 168 3.0 0.0 0.00 0.00 0.00 81 1006.7
20260508201600 70 168 3.0 0.0 0.00 0.00 0.00 79 1007.1
20260508200053 71 187 3.0 0.0 0.00 0.00 0.00 76 1007.3
20260508194551 71 159 4.0 0.0 0.00 0.00 0.00 77 1007.0
20260508193050 70 144 4.0 0.0 0.00 0.00 0.00 78 1007.1
20260508191551 69 160 4.0 0.0 0.00 0.00 0.00 77 1007.2
20260508190048 69 136 5.0 0.0 0.00 0.00 0.00 75 1007.6
20260508184549 69 153 5.0 0.0 0.00 0.00 0.00 76 1007.7
20260508183048 69 159 4.0 0.0 0.00 0.00 0.00 77 1008.1
20260508181546 70 144 5.0 0.0 0.00 0.00 0.00 74 1008.3
20260508180046 70 173 4.0 0.0 0.00 0.00 0.00 75 1008.2
20260508174554 70 105 5.0 0.0 0.00 0.00 0.00 76 1008.3
20260508173044 69 134 4.0 0.0 0.00 0.00 0.00 76 1008.8
20260508171543 69 132 5.0 0.0 0.00 0.00 0.00 74 1008.8
20260508170042 70 123 6.0 0.0 0.00 0.00 0.00 73 1009.1
20260508164540 69 70 7.0 0.0 0.00 0.00 0.00 75 1009.0
20260508163038 68 105 7.0 0.0 0.00 0.00 0.00 76 1009.3
20260508161533 67 117 4.0 0.0 0.00 0.00 0.00 77 1009.8
20260508160031 66 101 3.0 0.0 0.00 0.00 0.00 79 1010.0
20260508154529 65 78 4.0 0.0 0.00 0.00 0.00 80 1010.3
20260508153034 65 123 3.0 0.0 0.00 0.00 0.00 80 1010.4
20260508151524 65 95 4.0 0.0 0.00 0.00 0.00 80 1010.5